Tillbaka till svenska Fidonet
English   Information   Debug  
FILM   0/18
FNEWS_PUBLISH   4701
FN_SYSOP   42000
FN_SYSOP_OLD1   71952
FTP_FIDO   0/2
FTSC_PUBLIC   0/13895
FUNNY   1998/4886
GENEALOGY.EUR   0/71
GET_INFO   105
GOLDED   0/408
HAM   9004/16252
HOLYSMOKE   0/6791
HOT_SITES   0/1
HTMLEDIT   0/71
HUB203   466
HUB_100   264
HUB_400   39
HUMOR   0/29
IC   0/2851
INTERNET   0/424
INTERUSER   0/3
IP_CONNECT   719
JAMNNTPD   0/233
JAMTLAND   0/47
KATTY_KORNER   0/41
LAN   0/16
LINUX-USER   0/19
LINUXHELP   0/1155
LINUX   0/22251
LINUX_BBS   0/957
mail   18.68
mail_fore_ok   249
MENSA   0/341
MODERATOR   0/102
MONTE   0/992
MOSCOW_OKLAHOMA   0/1245
MUFFIN   0/783
MUSIC   0/321
N203_STAT   938
N203_SYSCHAT   313
NET203   321
NET204   69
NET_DEV   0/10
NORD.ADMIN   0/101
NORD.CHAT   0/2572
NORD.FIDONET   189
NORD.HARDWARE   0/28
NORD.KULTUR   0/114
NORD.PROG   0/32
NORD.SOFTWARE   0/88
NORD.TEKNIK   0/58
NORD   0/453
OCCULT_CHAT   0/93
OS2BBS   0/787
OS2DOSBBS   0/580
OS2HW   0/42
OS2INET   0/37
OS2LAN   0/134
OS2PROG   0/36
OS2REXX   0/113
OS2USER-L   207
OS2   0/4806
OSDEBATE   0/18996
PASCAL   0/490
PERL   0/457
PHP   0/45
POINTS   0/405
POLITICS   0/29554
POL_INC   9395/14731
PSION   103
R20_ADMIN   1129
R20_AMATORRADIO   0/2
R20_BEST_OF_FIDONET   14
R20_CHAT   0/893
R20_DEPP   0/3
R20_DEV   399
R20_ECHO2   1615
R20_ECHOPRES   0/35
R20_ESTAT   0/719
R20_FIDONETPROG...
...RAM.MYPOINT
  0/2
R20_FIDONETPROGRAM   0/22
R20_FIDONET   0/248
R20_FILEFIND   0/24
R20_FILEFOUND   0/22
R20_HIFI   0/3
R20_INFO2   3505
R20_INTERNET   0/12940
R20_INTRESSE   0/60
R20_INTR_KOM   0/99
R20_KANDIDAT.CHAT   42
R20_KANDIDAT   28
R20_KOM_DEV   112
R20_KONTROLL   0/13360
R20_KORSET   0/18
R20_LOKALTRAFIK   0/24
R20_MODERATOR   0/1852
R20_NC   76
R20_NET200   245
R20_NETWORK.OTH...
...ERNETS
  0/13
R20_OPERATIVSYS...
...TEM.LINUX
  0/44
R20_PROGRAMVAROR   0/1
R20_REC2NEC   534
R20_SFOSM   0/341
R20_SF   0/108
R20_SPRAK.ENGLISH   0/1
R20_SQUISH   107
R20_TEST   2
R20_WORST_OF_FIDONET   20
RAR   0/9
RA_MULTI   106
RA_UTIL   0/162
REGCON.EUR   0/2066
REGCON   0/13
SCIENCE   0/1206
SF   0/239
SHAREWARE_SUPPORT   0/5146
SHAREWRE   0/14
SIMPSONS   0/169
STATS_OLD1   0/2539.065
STATS_OLD2   0/2530
STATS_OLD3   0/2395.095
STATS_OLD4   0/1692.25
SURVIVOR   439/495
SYSOPS_CORNER   0/3
SYSOP   0/84
TAGLINES   0/112
TEAMOS2   0/4530
TECH   0/2617
TEST.444   0/105
TRAPDOOR   0/19
TREK   0/755
TUB   0/290
UFO   0/40
UNIX   0/1316
USA_EURLINK   0/102
USR_MODEMS   0/1
VATICAN   0/2740
VIETNAM_VETS   0/14
VIRUS   0/378
VIRUS_INFO   0/201
VISUAL_BASIC   0/473
WHITEHOUSE   1004/5187
WIN2000   0/101
WIN32   0/30
WIN95   0/4291
WIN95_OLD1   0/70272
WINDOWS   0/1517
WWB_SYSOP   0/419
WWB_TECH   0/810
ZCC-PUBLIC   0/1
ZEC   4

 
4DOS   0/134
ABORTION   0/7
ALASKA_CHAT   0/506
ALLFIX_FILE   0/1313
ALLFIX_FILE_OLD1   0/7997
ALT_DOS   0/152
AMATEUR_RADIO   0/1039
AMIGASALE   0/14
AMIGA   0/331
AMIGA_INT   0/1
AMIGA_PROG   0/20
AMIGA_SYSOP   0/26
ANIME   0/15
ARGUS   910/924
ASCII_ART   0/340
ASIAN_LINK   503/651
ASTRONOMY   0/417
AUDIO   0/92
AUTOMOBILE_RACING   0/105
BABYLON5   0/17862
BAG   135
BATPOWER   0/361
BBBS.ENGLISH   0/382
BBSLAW   0/109
BBS_ADS   0/5290
BBS_INTERNET   0/507
BIBLE   448/3563
BINKD   0/1119
BINKLEY   0/215
BLUEWAVE   0/2173
CABLE_MODEMS   0/25
CBM   0/46
CDRECORD   0/66
CDROM   0/20
CLASSIC_COMPUTER   0/378
COMICS   0/15
CONSPRCY   0/899
COOKING   38796
COOKING_OLD1   0/24719
COOKING_OLD2   0/40862
COOKING_OLD3   0/37489
COOKING_OLD4   0/35496
COOKING_OLD5   9370
C_ECHO   0/189
C_PLUSPLUS   0/31
DIRTY_DOZEN   0/201
DOORGAMES   0/2138
DOS_INTERNET   0/196
duplikat   6101
ECHOLIST   12793/18295
EC_SUPPORT   0/318
ELECTRONICS   0/359
ELEKTRONIK.GER   1534
ENET.LINGUISTIC   0/13
ENET.POLITICS   0/4
ENET.SOFT   0/11701
ENET.SYSOP   34185
ENET.TALKS   0/32
ENGLISH_TUTOR   0/2000
EVOLUTION   0/1335
FDECHO   0/217
FDN_ANNOUNCE   0/7068
FIDONEWS   24642
FIDONEWS_OLD1   0/49742
FIDONEWS_OLD2   0/35949
FIDONEWS_OLD3   0/30874
FIDONEWS_OLD4   0/37224
FIDO_SYSOP   12899
FIDO_UTIL   0/180
FILEFIND   0/209
FILEGATE   0/212
Möte HAM, 16252 texter
 lista första sista föregående nästa
Text 5435, 979 rader
Skriven 2012-07-27 00:31:11 av Amsat List (1:323/120.0)
Ärende: [keps] orb12208.amsa
============================
[keps] orb12208.amsa

Sender: keps-bounces@amsat.org
Return-Path: <keps-bounces@amsat.org>
X-Rcpt: craig.healy@chowda.com
X-UIDL: 1343361672.541

SB KEPS @ AMSAT  $ORB12208.O
Orbital Elements  12208.OSCAR

HR AMSAT ORBITAL ELEMENTS FOR OSCAR SATELLITES
FROM WA5QGD FORT WORTH,TX July 26, 2012
Send SUBSCRIBE KEPS/UNSUBSCRIBE KEPS to majordomo@amsat.org only
BID: ORB12208.O
TO ALL RADIO AMATEURS BT

Satellite: AO-07
Catalog number: 07530
Epoch time:      12208.64905719
Element set:     440
Inclination:      101.4042 deg
RA of node:       204.3389 deg
Eccentricity:    0.0011626
Arg of perigee:   204.3548 deg
Mean anomaly:     155.6967 deg
Mean motion:   12.53590375 rev/day
Decay rate:       -2.7e-07 rev/day^2
Epoch rev:           72499
Checksum:              298

Satellite: FO-29
Catalog number: 24278
Epoch time:      12207.93428118
Element set:    0902
Inclination:      098.5864 deg
RA of node:       303.5224 deg
Eccentricity:    0.0349825
Arg of perigee:   289.1213 deg
Mean anomaly:     067.2359 deg
Mean motion:   13.52985853 rev/day
Decay rate:        6.0e-07 rev/day^2
Epoch rev:           78719
Checksum:              339

Satellite: SO-33
Catalog number: 25509
Epoch time:      12207.76802549
Element set:     284
Inclination:      031.4319 deg
RA of node:       115.3576 deg
Eccentricity:    0.0352673
Arg of perigee:   181.0273 deg
Mean anomaly:     178.9645 deg
Mean motion:   14.28793799 rev/day
Decay rate:       3.42e-06 rev/day^2
Epoch rev:           71817
Checksum:              333

Satellite: RS-22
Catalog number: 27939
Epoch time:      12208.77368794
Element set:     573
Inclination:      097.8099 deg
RA of node:       047.5547 deg
Eccentricity:    0.0014170
Arg of perigee:   136.2963 deg
Mean anomaly:     223.9364 deg
Mean motion:   14.64074380 rev/day
Decay rate:       1.86e-06 rev/day^2
Epoch rev:           47167
Checksum:              346

Satellite: VO-52
Catalog number: 28650
Epoch time:      12208.86290994
Element set:     164
Inclination:      097.5956 deg
RA of node:       237.8758 deg
Eccentricity:    0.0025011
Arg of perigee:   271.0037 deg
Mean anomaly:     088.8323 deg
Mean motion:   14.83062410 rev/day
Decay rate:       8.12e-06 rev/day^2
Epoch rev:           39085
Checksum:              316

Satellite: HO-68
Catalog number: 36122
Epoch time:      12208.73929346
Element set:     681
Inclination:      100.3584 deg
RA of node:       267.2836 deg
Eccentricity:    0.0007665
Arg of perigee:   021.6889 deg
Mean anomaly:     338.4551 deg
Mean motion:   13.16296980 rev/day
Decay rate:       -4.4e-07 rev/day^2
Epoch rev:           12559
Checksum:              328

/EX
SB KEPS @ AMSAT  $ORB12208.D
Orbital Elements  12208.MICROS

HR AMSAT ORBITAL ELEMENTS FOR THE MICROSATS
FROM WA5QGD FORT WORTH,TX July 26, 2012
Send SUBSCRIBE KEPS/UNSUBSCRIBE KEPS to majordomo@amsat.org only
BID: ORB12208.D
TO ALL RADIO AMATEURS BT

Satellite: UO-11
Catalog number: 14781
Epoch time:      12207.98312660
Element set:    0943
Inclination:      097.9491 deg
RA of node:       267.1594 deg
Eccentricity:    0.0007803
Arg of perigee:   267.7814 deg
Mean anomaly:     092.2496 deg
Mean motion:   14.80497846 rev/day
Decay rate:      -2.31e-06 rev/day^2
Epoch rev:           52567
Checksum:              337

Satellite: AO-16
Catalog number: 20439
Epoch time:      12207.79511478
Element set:    0526
Inclination:      098.4329 deg
RA of node:       150.0920 deg
Eccentricity:    0.0011853
Arg of perigee:   047.0500 deg
Mean anomaly:     313.1680 deg
Mean motion:   14.32067927 rev/day
Decay rate:        3.8e-07 rev/day^2
Epoch rev:           17552
Checksum:              283

Satellite: LO-19
Catalog number: 20442
Epoch time:      12207.95197956
Element set:    0461
Inclination:      098.3975 deg
RA of node:       153.1152 deg
Eccentricity:    0.0012593
Arg of perigee:   038.8336 deg
Mean anomaly:     321.3748 deg
Mean motion:   14.32285518 rev/day
Decay rate:        3.7e-07 rev/day^2
Epoch rev:           17573
Checksum:              317

Satellite: AO-27
Catalog number: 22825
Epoch time:      12207.81370935
Element set:    0166
Inclination:      098.5759 deg
RA of node:       150.0302 deg
Eccentricity:    0.0008479
Arg of perigee:   160.6981 deg
Mean anomaly:     199.4526 deg
Mean motion:   14.29472878 rev/day
Decay rate:        9.1e-07 rev/day^2
Epoch rev:           98199
Checksum:              347

Satellite: IO-26
Catalog number: 22826
Epoch time:      12208.85691627
Element set:     910
Inclination:      098.5701 deg
RA of node:       151.4185 deg
Eccentricity:    0.0009149
Arg of perigee:   151.8815 deg
Mean anomaly:     208.2861 deg
Mean motion:   14.29747471 rev/day
Decay rate:        1.7e-07 rev/day^2
Epoch rev:           98227
Checksum:              322

Satellite: GO-32
Catalog number: 25397
Epoch time:      12208.90635511
Element set:     833
Inclination:      098.3666 deg
RA of node:       185.6666 deg
Eccentricity:    0.0001547
Arg of perigee:   127.8935 deg
Mean anomaly:     232.2413 deg
Mean motion:   14.23284457 rev/day
Decay rate:        9.3e-07 rev/day^2
Epoch rev:           72967
Checksum:              327

Satellite: NO-44
Catalog number: 26931
Epoch time:      12208.56293845
Element set:      97
Inclination:      067.0521 deg
RA of node:       018.8554 deg
Eccentricity:    0.0007298
Arg of perigee:   256.9331 deg
Mean anomaly:     103.0990 deg
Mean motion:   14.29814223 rev/day
Decay rate:       -1.0e-07 rev/day^2
Epoch rev:           56487
Checksum:              308

